{"data":{"norad_id":58771,"epoch":"2026-09-20T05:29:03.915456Z","epoch_age_seconds":175940,"freshness":"STALE","line1":"1 58771U 24011G   26263.22851754  .00000365  00000+0  21948-4 0  9990","line2":"2 58771  53.1626 186.6357 0001202  93.4763 266.6378 15.34397532150103","mean_motion":15.34397532,"eccentricity":0.0001202,"inclination_deg":53.1626,"raan_deg":186.6357,"arg_perigee_deg":93.4763,"mean_anomaly_deg":266.6378,"bstar":2.1948e-5,"rev_number":15010,"period_min":93.847909030657,"perigee_km":461.88830575445,"apogee_km":463.53284551164,"semimajor_km":6840.847575633,"source":"CELESTRAK","updated_at":"2026-09-21T09:00:33.957664Z"}}